Terminal Aerodrome Forecast
Issued by NWS Twin Cities, MN

Home | Current Version | Previous Version | Graphics & Text | Print | Product List | Glossary On
Versions: 1 2 3 4 5 6 7 8 9 10 11 12 13 14 15 16
000
FTUS43 KMPX 200707 RRA
TAFSTC
TAF
KSTC 200707Z 2007/2106 17003KT P6SM SKC
     FM201600 18009KT P6SM BKN200
     FM202200 22011KT P6SM BKN150
     FM210300 26011KT P6SM FEW200
     FM210500 29014G22KT P6SM SKC=

USA.gov is the U.S. government's official web portal to all federal, state and local government web resources and services.